{"data":{"norad_id":57990,"epoch":"2026-09-21T19:55:10.119936Z","epoch_age_seconds":119119,"freshness":"FRESH","line1":"1 57990U 23152E   26264.82997824  .00002522  00000+0  12604-3 0  9998","line2":"2 57990  34.9898  54.1193 0018070 283.2334  76.6363 15.16959500164842","mean_motion":15.169595,"eccentricity":0.001807,"inclination_deg":34.9898,"raan_deg":54.1193,"arg_perigee_deg":283.2334,"mean_anomaly_deg":76.6363,"bstar":0.00012604,"rev_number":16484,"period_min":94.92672678473,"perigee_km":502.58012645047,"apogee_km":527.49205399854,"semimajor_km":6893.1730902245,"source":"CELESTRAK","updated_at":"2026-09-22T09:00:26.412563Z"}}